Location: N�rnberg
(49.4489°N, 11.0797°E)
Time: 10:07:42
(UTC+01:00)

ISS - Pass Details

Date: 10 January 2018
Orbit: 402 x 407 km, 51.6° (Epoch: 21 January)

Event Time Altitude Azimuth Distance (km) Brightness Sun altitude
Exits shadow 06:31:06 36° 279° (W) 668 -3.3 -15.3°
Maximum altitude 06:32:18 74° 203° (SSW) 427 -3.8 -15.1°
Drops below altitude 10° 06:35:34 10° 117° (ESE) 1,466 0.3 -14.6°
Sets 06:37:39 0° 116° (ESE) 2,325 1.9 -14.2°
